Location: Appingedam
(53.3222°N, 6.8488°E)
Time: 20:03:48
(UTC+00:00)

ARIANE 5 R/B - Pass Details

Date: 15 May 2026
Orbit: 614 x 648 km, 98.0° (Epoch: 14 September)

Event Time Altitude Azimuth Distance (km) Brightness Sun altitude
Exits shadow 22:52:41 33° 182° (S) 1,075 3.2 -17.2°
Maximum altitude 22:54:35 69° 257° (WSW) 691 2.7 -17.2°
Drops below altitude 10° 22:59:04 10° 341° (NNW) 2,055 6.5 -17.3°
Sets 23:01:18 0° 344° (NNW) 2,972 7.7 -17.4°
